User: anonymous   Login
Location: Long Point Provincial Park
(42.5794°N, 80.4103°W)
Time: 17:50:59
(UTC-04:00)
Language:

Iridium 19 - Orbit

View from above orbital plane
View from above orbital plane
View from above satellite
View from above satellite

Ground track
Ground track

The orbit data is extracted from the following two-line orbital elements,

1 24965U 97056A   16208.23369955  .00000141  00000-0  43296-4 0  9996
2 24965  86.3962  94.9896 0002240  84.6116 275.5336 14.34222385985839
Epoch (UTC): 26 July 2016 05:36:31
Eccentricity: 0.0002240
inclination: 86.3962°
perigee height: 776 km
apogee height: 779 km
right ascension of ascending node: 94.9896°
argument of perigee: 84.6116°
revolutions per day: 14.34222385
mean anomaly at epoch: 275.5336°
orbit number at epoch: 98583

The dashed part of the orbit path shows where the satellite is in the earth's shadow,  

DLR